FW2969 Weather Reports


time (UTC)temp
F
wind
direction
speed
knots
gust
knots
rain 1hr
in
rain 24hr
in
rain mn
in
humidity
%
barometer
mb
20260902213030 76 44 0.0 0.9 0.00 0.00 0.00 48 1008.4
20260902211528 77 44 0.0 0.0 0.00 0.00 0.00 46 1008.5
20260902210025 77 6 0.0 0.9 0.00 0.00 0.00 44 1008.6
20260902204524 77 51 0.0 0.9 0.00 0.00 0.00 46 1008.6
20260902203024 76 51 0.0 0.9 0.00 0.00 0.00 44 1008.7
20260902201523 77 51 0.0 0.0 0.00 0.00 0.00 43 1008.9
20260902200022 76 51 0.0 0.9 0.00 0.00 0.00 43 1009.0
20260902194522 77 51 0.0 0.0 0.00 0.00 0.00 42 1009.3
20260902193021 77 51 0.0 0.9 0.00 0.00 0.00 44 1009.4
20260902191522 77 51 0.0 0.0 0.00 0.00 0.00 41 1009.4
20260902190031 77 51 0.0 0.0 0.00 0.00 0.00 40 1009.4
20260902184520 77 51 0.0 0.0 0.00 0.00 0.00 39 1009.4
20260902183019 77 50 0.0 0.0 0.00 0.00 0.00 37 1009.4
20260902181519 77 50 0.0 0.0 0.00 0.00 0.00 36 1009.3
20260902180025 77 51 0.0 0.0 0.00 0.00 0.00 40 1009.2
20260902174545 77 352 0.0 0.0 0.00 0.00 0.00 45 1009.1
20260902173047 77 352 0.0 0.0 0.00 0.00 0.00 47 1009.1
20260902171607 77 352 0.0 0.9 0.00 0.00 0.00 45 1009.0
20260902170048 77 351 0.0 0.0 0.00 0.00 0.00 43 1008.9
20260902164545 77 351 0.0 0.9 0.00 0.00 0.00 49 1008.7
20260902163042 78 346 0.0 1.7 0.00 0.00 0.00 56 1008.7
20260902161546 78 343 0.0 0.9 0.00 0.00 0.00 59 1008.5
20260902160043 79 339 0.0 1.7 0.00 0.00 0.00 59 1008.5
20260902154540 80 342 0.0 1.7 0.00 0.00 0.00 61 1008.4
20260902153039 81 8 0.0 2.6 0.00 0.00 0.00 64 1008.3
20260902151538 82 331 0.0 3.5 0.00 0.00 0.00 66 1008.5
20260902150036 82 264 0.0 2.6 0.00 0.00 0.00 70 1008.5
20260902144535 82 305 0.0 4.3 0.00 0.00 0.00 72 1008.6
20260902143034 82 307 0.9 4.3 0.00 0.00 0.00 69 1008.6
20260902141545 83 268 1.7 4.3 0.00 0.00 0.00 66 1008.5
20260902140032 83 313 1.7 6.1 0.00 0.00 0.00 67 1008.6
20260902134534 83 357 2.6 5.2 0.00 0.00 0.00 69 1008.5
20260902133032 82 265 2.6 5.2 0.00 0.00 0.00 70 1008.6
20260902131528 82 303 1.7 5.2 0.00 0.00 0.00 70 1008.6
20260902130029 82 292 1.7 5.2 0.00 0.00 0.00 70 1008.7
20260902124524 82 313 1.7 7.8 0.00 0.00 0.00 70 1008.8
20260902123021 82 297 0.9 5.2 0.00 0.00 0.00 68 1008.9
20260902121520 82 266 1.7 5.2 0.00 0.00 0.00 69 1009.0
20260902120017 82 296 2.6 8.7 0.00 0.00 0.00 68 1009.1
20260902114523 82 267 0.9 7.0 0.00 0.00 0.00 68 1009.4
20260902113018 81 346 1.7 7.0 0.00 0.00 0.00 71 1009.6
20260902111513 81 301 1.7 6.1 0.00 0.00 0.00 70 1009.6
20260902110012 81 301 1.7 7.0 0.00 0.00 0.00 71 1009.7
20260902104513 81 236 1.7 7.0 0.00 0.00 0.00 70 1009.8
20260902103008 81 311 0.9 3.5 0.00 0.00 0.00 73 1009.9
20260902101507 80 320 1.7 7.8 0.00 0.00 0.00 74 1009.8
20260902100007 80 321 1.7 5.2 0.00 0.00 0.00 75 1009.9
20260902094505 80 308 0.9 5.2 0.00 0.00 0.00 74 1010.0
20260902093003 80 303 1.7 6.1 0.00 0.00 0.00 73 1010.2
20260902091508 80 327 0.9 3.5 0.00 0.00 0.00 73 1010.2
20260902090000 80 288 0.9 5.2 0.00 0.00 0.00 73 1010.3
20260902084700 80 294 1.7 4.3 0.00 0.00 0.00 72 1010.3
20260902083058 80 288 0.0 7.0 0.00 0.00 0.00 72 1010.4
20260902081557 80 315 1.7 5.2 0.00 0.00 0.00 69 1010.6
20260902080055 80 320 1.7 4.3 0.00 0.00 0.00 66 1010.7
20260902074608 80 325 0.0 3.5 0.00 0.00 0.00 61 1010.8
20260902073050 80 352 0.0 2.6 0.00 0.00 0.00 59 1010.7
20260902071547 79 332 0.0 2.6 0.00 0.00 0.00 59 1010.6
20260902070046 79 313 0.0 1.7 0.00 0.00 0.00 59 1010.5
20260902064547 79 324 0.9 3.5 0.00 0.00 0.00 57 1010.5
20260902063100 78 269 0.0 0.0 0.00 0.00 0.00 55 1010.5
20260902061541 77 269 0.0 1.7 0.00 0.00 0.00 53 1010.4
20260902060053 78 245 0.0 0.0 0.00 0.00 0.00 53 1010.3
20260902054540 78 109 0.0 0.0 0.00 0.00 0.00 54 1010.3
20260902053037 77 109 0.0 0.0 0.00 0.00 0.00 56 1010.3
20260902051543 75 109 0.0 0.9 0.00 0.00 0.00 59 1010.4
20260902050032 74 109 0.0 0.9 0.00 0.00 0.00 59 1010.4
20260902044526 73 109 0.0 1.7 0.00 0.00 0.00 60 1010.4
20260902043025 70 109 0.0 0.0 0.00 0.00 0.00 63 1010.5
20260902041540 68 109 0.0 0.0 0.00 0.00 0.00 65 1010.3
20260902040026 68 109 0.0 0.0 0.00 0.00 0.00 65 1010.1
20260902034523 68 109 0.0 0.9 0.00 0.00 0.00 65 1010.2
20260902033023 68 109 0.0 0.9 0.00 0.00 0.00 65 1010.1
20260902031522 67 109 0.0 0.0 0.00 0.00 0.00 65 1010.0
20260902030021 66 109 0.0 1.7 0.00 0.00 0.00 68 1010.1
20260902024520 66 110 0.0 0.0 0.00 0.00 0.00 69 1010.1
20260902023020 65 110 0.0 0.0 0.00 0.00 0.00 72 1010.1
20260902021523 65 110 0.0 0.0 0.00 0.00 0.00 75 1010.0
20260902020017 65 110 0.0 0.0 0.00 0.00 0.00 77 1010.0
20260902014523 66 110 0.0 0.0 0.00 0.00 0.00 79 1010.2
20260902013013 66 110 0.0 0.0 0.00 0.00 0.00 77 1010.2
20260902011513 67 110 0.0 0.0 0.00 0.00 0.00 75 1010.2
20260902010009 67 110 0.0 0.9 0.00 0.00 0.00 74 1010.1
20260902004514 67 110 0.0 0.9 0.00 0.01 0.00 71 1010.2
20260902003020 68 130 0.0 1.7 0.00 0.01 0.00 69 1010.0
20260902001505 68 147 0.0 2.6 0.00 0.01 0.00 68 1010.0
20260902000104 68 109 0.0 1.7 0.00 0.01 0.00 67 1009.8
20260901234557 70 37 0.0 0.9 0.00 0.01 0.00 65 1009.5
20260901233053 71 23 0.0 0.9 0.00 0.01 0.00 63 1009.6
20260901231600 71 23 0.0 0.0 0.00 0.01 0.00 62 1009.6
20260901230052 72 14 0.0 0.0 0.00 0.01 0.00 61 1009.4
20260901224551 73 20 0.0 4.3 0.00 0.01 0.00 59 1009.4
20260901223049 73 11 0.0 1.7 0.00 0.01 0.00 59 1009.5
20260901221546 72 335 0.0 1.7 0.00 0.01 0.00 60 1009.7
20260901220048 72 97 0.0 0.9 0.00 0.01 0.00 61 1010.0
20260901214543 72 97 0.0 0.9 0.00 0.01 0.00 59 1010.2